| time (UTC) | temp F | wind direction | speed MPH | gust MPH | rain 1hr in | rain 24hr in | rain mn in | humidity % | barometer mb |
| 20260504081015 | 61 | 315 | 2.0 | 2.0 | 0.00 | 0.06 | 0.01 | 75 | 1011.3 |
| 20260504045017 | 60 | 264 | 3.0 | 3.0 | 0.05 | 0.05 | 0.05 | 86 | 1011.1 |
| 20260504044039 | 61 | 0.0 | 0.0 | 0.05 | 0.05 | 0.05 | 82 | 1010.9 | |
| 20260504043022 | 63 | 0.0 | 0.0 | 0.05 | 0.05 | 0.05 | 76 | 1011.3 | |
| 20260504042024 | 64 | 0.0 | 0.0 | 0.05 | 0.05 | 0.05 | 72 | 1012.3 | |
| 20260504041026 | 67 | 135 | 1.0 | 3.0 | 0.01 | 0.01 | 0.01 | 58 | 1011.5 |
| 20260504040022 | 68 | 34 | 0.0 | 2.0 | 0.00 | 0.00 | 0.00 | 49 | 1011.5 |
| 20260504035039 | 68 | 279 | 1.0 | 2.0 | 0.00 | 0.00 | 0.00 | 49 | 1012.0 |
| 20260504034015 | 68 | 27 | 1.0 | 3.0 | 0.00 | 0.00 | 0.00 | 49 | 1012.3 |
| 20260504033017 | 68 | 0.0 | 0.0 | 0.00 | 0.00 | 0.00 | 49 | 1012.3 | |
| 20260504032019 | 69 | 0.0 | 0.0 | 0.00 | 0.00 | 0.00 | 48 | 1012.3 | |
| 20260504031021 | 69 | 327 | 1.0 | 2.0 | 0.00 | 0.00 | 0.00 | 47 | 1012.3 |
| 20260504030023 | 70 | 0.0 | 1.0 | 0.00 | 0.00 | 0.00 | 47 | 1012.3 | |
| 20260504025046 | 70 | 180 | 0.0 | 2.0 | 0.00 | 0.00 | 0.00 | 47 | 1012.3 |
| 20260504024028 | 70 | 0.0 | 0.0 | 0.00 | 0.00 | 0.00 | 47 | 1012.3 | |
| 20260504023030 | 71 | 0.0 | 0.0 | 0.00 | 0.00 | 0.00 | 48 | 1012.3 | |
| 20260504022052 | 71 | 0.0 | 0.0 | 0.00 | 0.00 | 0.00 | 48 | 1012.3 | |
| 20260504021016 | 0 | 0.0 | 0.0 | 0.00 | 0.00 | 0.00 | 1012.1 | ||
| 20260504020017 | 71 | 0.0 | 0.0 | 0.00 | 0.00 | 0.00 | 46 | 1012.0 | |
| 20260504015020 | 71 | 0.0 | 0.0 | 0.00 | 0.00 | 0.00 | 46 | 1011.8 | |
| 20260504014042 | 71 | 68 | 1.0 | 2.0 | 0.00 | 0.00 | 0.00 | 46 | 1011.6 |
| 20260504013024 | 72 | 0.0 | 1.0 | 0.00 | 0.00 | 0.00 | 46 | 1011.6 | |
| 20260504012020 | 72 | 0.0 | 0.0 | 0.00 | 0.00 | 0.00 | 46 | 1011.5 | |
| 20260504011036 | 72 | 0.0 | 0.0 | 0.00 | 0.00 | 0.00 | 44 | 1011.4 | |
| 20260504010030 | 73 | 0.0 | 1.0 | 0.00 | 0.00 | 0.00 | 43 | 1011.4 | |
| 20260504005033 | 74 | 0.0 | 0.0 | 0.00 | 0.00 | 0.00 | 41 | 1011.4 | |
| 20260504004016 | 74 | 0.0 | 0.0 | 0.00 | 0.00 | 0.00 | 40 | 1011.5 | |
| 20260504003018 | 75 | 0 | 1.0 | 2.0 | 0.00 | 0.00 | 0.00 | 38 | 1011.6 |
| 20260504002020 | 75 | 82 | 2.0 | 4.0 | 0.00 | 0.00 | 0.00 | 38 | 1011.6 |
| 20260504001022 | 76 | 68 | 3.0 | 3.0 | 0.00 | 0.00 | 0.00 | 37 | 1011.5 |
| 20260504000025 | 0 | 68 | 3.0 | 4.0 | 0.00 | 0.00 | 0.00 | 1011.5 | |
| 20260503235027 | 77 | 45 | 4.0 | 7.0 | 0.00 | 0.00 | 0.00 | 36 | 1011.6 |
| 20260503234049 | 77 | 55 | 4.0 | 6.0 | 0.00 | 0.00 | 0.00 | 36 | 1011.8 |
| 20260503233031 | 78 | 27 | 5.0 | 7.0 | 0.00 | 0.00 | 0.00 | 35 | 1011.8 |
| 20260503232015 | 78 | 51 | 5.0 | 7.0 | 0.00 | 0.00 | 0.00 | 34 | 1012.0 |
| 20260503231038 | 78 | 95 | 7.0 | 12.0 | 0.00 | 0.00 | 0.00 | 33 | 1012.0 |
| 20260503230040 | 79 | 90 | 9.0 | 13.0 | 0.00 | 0.00 | 0.00 | 32 | 1012.0 |
| 20260503225022 | 79 | 32 | 5.0 | 6.0 | 0.00 | 0.00 | 0.00 | 33 | 1012.3 |
| 20260503224038 | 80 | 355 | 6.0 | 8.0 | 0.00 | 0.00 | 0.00 | 31 | 1012.3 |
| 20260503223026 | 80 | 70 | 10.0 | 12.0 | 0.00 | 0.00 | 0.00 | 31 | 1012.3 |
| 20260503222029 | 80 | 7 | 9.0 | 13.0 | 0.00 | 0.00 | 0.00 | 31 | 1012.3 |
| 20260503221031 | 0 | 0.0 | 0.0 | 0.00 | 0.00 | 0.00 | 1012.5 | ||
| 20260503220015 | 80 | 45 | 8.0 | 11.0 | 0.00 | 0.00 | 0.00 | 31 | 1012.5 |
| 20260503215017 | 80 | 45 | 6.0 | 7.0 | 0.00 | 0.00 | 0.00 | 33 | 1012.8 |
| 20260503214019 | 79 | 53 | 3.0 | 4.0 | 0.00 | 0.00 | 0.00 | 34 | 1012.9 |
| 20260503213021 | 0 | 23 | 6.0 | 6.0 | 0.00 | 0.00 | 0.00 | 1013.1 | |
| 20260503212144 | 79 | 9.0 | 9.0 | 0.00 | 0.00 | 0.00 | 34 | 1013.1 | |
| 20260503211026 | 0 | 0.0 | 0.0 | 0.00 | 0.00 | 0.00 | 1013.3 | ||
| 20260503210028 | 78 | 9.0 | 9.0 | 0.00 | 0.00 | 0.00 | 33 | 1013.3 | |
| 20260503205031 | 78 | 27 | 5.0 | 8.0 | 0.00 | 0.00 | 0.00 | 34 | 1013.3 |
| 20260503204015 | 77 | 320 | 6.0 | 7.0 | 0.00 | 0.00 | 0.00 | 34 | 1013.8 |
| 20260503203018 | 77 | 320 | 6.0 | 7.0 | 0.00 | 0.00 | 0.00 | 34 | 1014.1 |
| 20260503202020 | 77 | 293 | 7.0 | 9.0 | 0.00 | 0.00 | 0.00 | 33 | 1014.4 |
| 20260503201022 | 76 | 5.0 | 5.0 | 0.00 | 0.00 | 0.00 | 34 | 1014.8 | |
| 20260503200019 | 76 | 38 | 6.0 | 8.0 | 0.00 | 0.00 | 0.00 | 35 | 1014.8 |
| 20260503195035 | 76 | 283 | 5.0 | 5.0 | 0.00 | 0.00 | 0.00 | 34 | 1015.1 |
| 20260503194023 | 75 | 140 | 7.0 | 8.0 | 0.00 | 0.00 | 0.00 | 35 | 1015.5 |
| 20260503193025 | 75 | 0 | 5.0 | 6.0 | 0.00 | 0.00 | 0.00 | 34 | 1015.9 |
| 20260503192028 | 74 | 68 | 7.0 | 10.0 | 0.00 | 0.00 | 0.00 | 34 | 1016.1 |
| 20260503191030 | 74 | 61 | 6.0 | 8.0 | 0.00 | 0.00 | 0.00 | 34 | 1016.3 |
| 20260503190032 | 74 | 38 | 5.0 | 7.0 | 0.00 | 0.00 | 0.00 | 36 | 1016.4 |
| 20260503185016 | 74 | 33 | 7.0 | 11.0 | 0.00 | 0.00 | 0.00 | 35 | 1016.5 |
| 20260503184018 | 74 | 44 | 5.0 | 9.0 | 0.00 | 0.00 | 0.00 | 36 | 1016.9 |
| 20260503183020 | 73 | 348 | 6.0 | 11.0 | 0.00 | 0.00 | 0.00 | 35 | 1017.4 |
| 20260503182023 | 72 | 63 | 5.0 | 7.0 | 0.00 | 0.00 | 0.00 | 35 | 1017.7 |
| 20260503181025 | 72 | 19 | 5.0 | 8.0 | 0.00 | 0.00 | 0.00 | 35 | 1018.2 |
| 20260503180027 | 72 | 350 | 4.0 | 5.0 | 0.00 | 0.00 | 0.00 | 36 | 1018.3 |
| 20260503175030 | 70 | 51 | 7.0 | 11.0 | 0.00 | 0.00 | 0.00 | 37 | 1018.5 |
| 20260503174026 | 70 | 48 | 6.0 | 8.0 | 0.00 | 0.00 | 0.00 | 39 | 1018.9 |
| 20260503173016 | 71 | 59 | 6.0 | 11.0 | 0.00 | 0.00 | 0.00 | 39 | 1019.0 |
| 20260503172018 | 70 | 53 | 8.0 | 12.0 | 0.00 | 0.00 | 0.00 | 40 | 1019.1 |
| 20260503171020 | 69 | 35 | 6.0 | 8.0 | 0.00 | 0.00 | 0.00 | 41 | 1019.4 |
| 20260503131019 | 54 | 299 | 3.0 | 4.0 | 0.00 | 0.00 | 0.00 | 61 | 1022.2 |